TimeEST,TemperatureF,Dew PointF,Humidity,Sea Level PressureIn,VisibilityMPH,Wind Direction,Wind SpeedMPH,Gust SpeedMPH,PrecipitationIn,Events,Conditions,WindDirDegrees,DateUTC
12:05 AM,44.6,42.8,93,30.04,1.2,Calm,Calm,-,N/A,,Mostly Cloudy,0,2012-12-09 05:05:00
12:27 AM,42.8,42.8,100,30.03,1.2,Calm,Calm,-,N/A,,Scattered Clouds,0,2012-12-09 05:27:00
12:48 AM,42.8,41.0,93,30.04,0.8,Calm,Calm,-,N/A,,Overcast,0,2012-12-09 05:48:00
1:09 AM,42.8,42.8,100,30.04,0.2,Calm,Calm,-,N/A,,Overcast,0,2012-12-09 06:09:00
1:31 AM,42.8,42.8,100,30.04,0.5,Calm,Calm,-,N/A,,Overcast,0,2012-12-09 06:31:00
1:52 AM,42.8,41.0,93,30.04,1.0,Calm,Calm,-,N/A,,Overcast,0,2012-12-09 06:52:00
2:13 AM,42.8,41.0,93,30.05,1.8,Calm,Calm,-,N/A,,Overcast,0,2012-12-09 07:13:00
2:56 AM,44.6,42.8,93,30.07,0.2,Calm,Calm,-,N/A,,Overcast,0,2012-12-09 07:56:00
3:17 AM,44.6,42.8,93,30.07,0.2,Calm,Calm,-,N/A,,Overcast,0,2012-12-09 08:17:00
3:38 AM,44.6,42.8,93,30.07,0.2,Calm,Calm,-,N/A,,Overcast,0,2012-12-09 08:38:00
4:00 AM,44.6,44.6,100,30.07,0.2,Calm,Calm,-,N/A,,Overcast,0,2012-12-09 09:00:00
4:21 AM,44.6,44.6,100,30.07,0.2,Calm,Calm,-,N/A,,Overcast,0,2012-12-09 09:21:00
4:42 AM,46.4,44.6,93,30.07,0.5,Calm,Calm,-,N/A,,Overcast,0,2012-12-09 09:42:00
5:04 AM,44.6,44.6,100,30.08,0.2,Calm,Calm,-,N/A,,Overcast,0,2012-12-09 10:04:00
5:25 AM,44.6,44.6,100,30.09,0.2,Calm,Calm,-,N/A,,Overcast,0,2012-12-09 10:25:00
5:46 AM,46.4,44.6,93,30.09,0.5,Calm,Calm,-,N/A,,Overcast,0,2012-12-09 10:46:00
6:29 AM,46.4,44.6,93,30.10,0.5,Calm,Calm,-,N/A,,Overcast,0,2012-12-09 11:29:00
6:50 AM,46.4,44.6,93,30.11,0.8,Calm,Calm,-,N/A,,Overcast,0,2012-12-09 11:50:00
7:12 AM,46.4,44.6,93,30.13,0.5,Calm,Calm,-,N/A,,Overcast,0,2012-12-09 12:12:00
7:33 AM,46.4,44.6,93,30.14,0.2,Calm,Calm,-,N/A,,Overcast,0,2012-12-09 12:33:00
7:54 AM,46.4,46.4,100,30.16,0.2,Calm,Calm,-,N/A,,Overcast,0,2012-12-09 12:54:00
8:15 AM,46.4,46.4,100,30.16,0.2,North,3.5,-,N/A,,Overcast,10,2012-12-09 13:15:00
8:36 AM,46.4,46.4,100,30.16,0.2,NE,3.5,-,N/A,,Overcast,40,2012-12-09 13:36:00
8:58 AM,46.4,46.4,100,30.16,0.2,NNE,3.5,-,N/A,,Overcast,30,2012-12-09 13:58:00
9:19 AM,48.2,46.4,93,30.17,0.8,NE,3.5,-,N/A,,Overcast,50,2012-12-09 14:19:00
9:40 AM,48.2,46.4,93,30.16,1.5,ENE,4.6,-,N/A,,Overcast,60,2012-12-09 14:40:00
10:01 AM,50.0,46.4,87,30.17,2.0,ENE,4.6,-,N/A,,Overcast,60,2012-12-09 15:01:00
10:23 AM,50.0,46.4,87,30.17,1.8,NE,3.5,-,N/A,,Overcast,50,2012-12-09 15:23:00
10:44 AM,50.0,48.2,94,30.17,1.5,NE,3.5,-,N/A,,Overcast,50,2012-12-09 15:44:00
11:05 AM,50.0,48.2,94,30.15,1.5,ENE,3.5,-,N/A,,Overcast,60,2012-12-09 16:05:00
11:26 AM,50.0,48.2,94,30.14,1.2,NE,5.8,-,N/A,,Overcast,40,2012-12-09 16:26:00
11:48 AM,50.0,48.2,94,30.14,1.2,ENE,3.5,-,N/A,,Overcast,70,2012-12-09 16:48:00
12:09 PM,50.0,48.2,94,30.14,1.5,ENE,5.8,-,N/A,,Overcast,60,2012-12-09 17:09:00
12:30 PM,50.0,48.2,94,30.14,1.5,ENE,3.5,-,N/A,,Overcast,60,2012-12-09 17:30:00
12:51 PM,50.0,48.2,94,30.13,1.5,East,5.8,-,N/A,,Overcast,90,2012-12-09 17:51:00
1:34 PM,50.0,48.2,94,30.13,0.8,East,3.5,-,N/A,,Overcast,80,2012-12-09 18:34:00
2:37 PM,50.0,48.2,94,30.12,0.8,East,4.6,-,N/A,,Overcast,100,2012-12-09 19:37:00
2:59 PM,50.0,48.2,94,30.12,0.8,East,4.6,-,N/A,,Overcast,80,2012-12-09 19:59:00
3:20 PM,50.0,46.4,87,30.12,0.8,East,5.8,-,N/A,,Overcast,80,2012-12-09 20:20:00
3:41 PM,50.0,46.4,87,30.12,0.8,East,4.6,-,N/A,,Overcast,80,2012-12-09 20:41:00
4:03 PM,50.0,46.4,87,30.12,0.8,Calm,Calm,-,N/A,,Overcast,0,2012-12-09 21:03:00
4:24 PM,50.0,46.4,87,30.12,0.8,ENE,3.5,-,N/A,,Overcast,70,2012-12-09 21:24:00
4:45 PM,50.0,46.4,87,30.11,0.5,East,4.6,-,N/A,,Overcast,80,2012-12-09 21:45:00
5:06 PM,50.0,46.4,87,30.12,1.2,East,3.5,-,N/A,,Overcast,100,2012-12-09 22:06:00
5:27 PM,50.0,46.4,87,30.12,1.0,Calm,Calm,-,N/A,,Overcast,0,2012-12-09 22:27:00
5:49 PM,50.0,46.4,87,30.12,1.2,Calm,Calm,-,N/A,,Overcast,0,2012-12-09 22:49:00
6:10 PM,50.0,46.4,87,30.11,1.2,Calm,Calm,-,N/A,,Overcast,0,2012-12-09 23:10:00
6:31 PM,50.0,46.4,87,30.11,0.8,Calm,Calm,-,N/A,,Overcast,0,2012-12-09 23:31:00
6:52 PM,50.0,48.2,94,30.10,2.0,Calm,Calm,-,N/A,,Overcast,0,2012-12-09 23:52:00
7:14 PM,50.0,48.2,94,30.09,1.8,Calm,Calm,-,N/A,,Overcast,0,2012-12-10 00:14:00
7:35 PM,50.0,48.2,94,30.09,0.8,Calm,Calm,-,N/A,,Overcast,0,2012-12-10 00:35:00
7:56 PM,50.0,48.2,94,30.08,0.5,Calm,Calm,-,N/A,,Overcast,0,2012-12-10 00:56:00
8:17 PM,50.0,46.4,87,30.07,0.2,Calm,Calm,-,N/A,,Overcast,0,2012-12-10 01:17:00
8:39 PM,50.0,46.4,87,30.07,0.2,Calm,Calm,-,N/A,,Overcast,0,2012-12-10 01:39:00
9:00 PM,50.0,48.2,94,30.05,0.2,Calm,Calm,-,N/A,,Overcast,0,2012-12-10 02:00:00
9:21 PM,50.0,48.2,94,30.05,0.5,Calm,Calm,-,N/A,,Overcast,0,2012-12-10 02:21:00
9:42 PM,50.0,48.2,94,30.04,0.5,Calm,Calm,-,N/A,,Overcast,0,2012-12-10 02:42:00
10:04 PM,50.0,48.2,94,30.03,0.5,Calm,Calm,-,N/A,,Overcast,0,2012-12-10 03:04:00
10:25 PM,50.0,48.2,94,30.03,0.2,Calm,Calm,-,N/A,,Overcast,0,2012-12-10 03:25:00
10:46 PM,50.0,48.2,94,30.02,0.2,Calm,Calm,-,N/A,,Overcast,0,2012-12-10 03:46:00
11:08 PM,50.0,48.2,94,30.01,0.2,Calm,Calm,-,N/A,,Overcast,0,2012-12-10 04:08:00
11:29 PM,50.0,48.2,94,30.01,1.0,Calm,Calm,-,N/A,,Overcast,0,2012-12-10 04:29:00
11:50 PM,50.0,48.2,94,30.00,2.0,Calm,Calm,-,N/A,,Overcast,0,2012-12-10 04:50:00